Wind_Speed
51 51 51 49 47 45 41 37 31 24 16 7 6 11 15 17 19 20 23 25 26 29 31 30 30 28 27 26 25 25 25 25 24 22 21 20 21 21 21 22 21 18 17 17 18 19 20 20 20 21 23 25 26 26 26 26 26 28 30 33 34 36 38 39 41 42 43 42 43 44 45 45 44 44 44 44 44 44 45 45 45 44 44 44 43 43
49 50 50 51 51 50 47 43 37 31 22 11 2 10 16 18 18 19 23 25 25 27 28 29 30 29 27 25 23 24 25 25 24 23 22 21 21 21 21 22 19 17 18 19 22 23 25 26 27 28 28 28 28 29 28 25 24 25 27 30 32 34 36 37 39 41 42 42 42 44 44 44 44 44 45 45 45 46 46 46 45 45 45 44 44 44
48 50 51 53 54 54 53 50 45 38 30 19 6 5 15 20 21 18 17 21 24 24 23 23 26 28 26 24 22 22 23 24 24 24 23 22 21 21 21 22 21 21 22 24 25 26 26 29 30 31 30 29 29 29 27 26 26 26 27 29 31 33 34 35 36 37 38 39 39 40 41 41 42 43 43 44 45 45 45 45 44 43 43 42 42 42
49 50 51 52 54 55 55 54 50 45 40 29 16 6 10 17 21 21 17 18 22 21 20 22 25 25 23 22 22 22 23 24 24 24 23 22 21 21 22 24 25 24 23 24 26 26 28 31 32 32 31 31 31 29 28 28 29 29 30 30 30 32 33 34 35 36 37 37 37 37 37 37 38 40 41 42 43 43 43 43 43 43 42 41 41 40
47 47 49 50 52 53 53 55 54 50 48 40 28 16 10 11 17 22 20 17 18 18 18 19 21 20 19 20 21 22 22 22 22 21 21 22 22 23 24 26 26 24 23 24 25 27 29 32 33 32 33 34 33 31 30 30 31 32 32 32 32 32 33 34 35 35 35 35 36 36 36 35 35 36 37 39 41 42 42 42 42 42 41 40 40 40
44 45 47 48 48 49 50 55 56 54 53 48 37 27 18 11 14 21 21 19 19 20 19 16 16 18 18 18 19 19 19 19 19 20 21 22 23 24 26 27 25 24 24 24 25 28 30 32 33 34 35 37 36 34 34 34 35 36 36 36 35 34 34 35 36 37 36 36 36 37 37 37 37 37 38 38 40 41 41 41 42 41 40 40 39 39
43 44 45 45 45 46 50 55 57 56 56 53 45 37 28 16 11 19 22 20 18 16 15 15 15 16 16 15 14 13 13 15 17 20 21 23 24 25 26 26 25 24 25 24 25 28 30 32 34 35 35 37 39 38 36 37 38 39 39 39 40 39 39 38 39 40 40 39 39 39 38 36 36 39 42 42 42 42 41 41 42 41 41 41 40 40
43 43 43 44 44 47 50 53 54 57 58 56 51 44 37 27 18 17 18 14 12 11 10 10 11 11 11 11 11 10 10 13 16 19 22 24 26 26 26 26 25 24 25 25 25 27 29 32 34 36 37 38 40 42 43 44 43 43 43 43 43 44 44 44 44 44 45 44 44 44 42 38 34 37 41 43 43 42 42 43 43 43 43 42 42 41
42 42 43 44 45 47 49 50 51 55 56 56 55 50 44 38 30 21 16 13 12 11 9 6 5 5 7 8 9 9 9 11 15 18 22 25 26 26 26 27 26 26 26 26 27 28 30 32 34 37 39 40 41 43 45 47 49 49 49 48 48 47 47 47 48 48 48 49 50 50 48 45 42 41 42 44 43 40 40 42 44 44 44 43 43 41
40 41 42 44 45 46 47 46 47 51 53 53 54 53 49 44 38 31 23 18 15 12 9 6 2 0 3 5 6 7 7 10 14 17 20 23 24 24 25 27 27 27 27 28 29 30 32 33 35 37 38 40 42 44 45 47 50 52 53 54 55 55 55 54 54 53 52 52 53 53 54 53 52 51 50 51 49 45 42 42 43 45 46 46 45 44
39 40 41 42 44 45 45 45 45 47 48 49 52 52 51 48 45 41 36 31 26 22 17 13 9 6 2 2 3 3 5 9 13 16 18 21 22 23 25 27 28 29 30 31 32 34 36 38 40 42 43 43 45 47 48 50 51 53 55 57 58 60 61 62 63 62 61 60 58 58 58 58 58 58 58 57 56 53 51 49 49 51 52 50 49 49
38 39 40 41 42 42 43 43 43 44 45 45 48 49 49 49 49 47 44 41 37 33 29 25 21 17 13 8 4 2 3 6 11 16 19 21 23 24 25 27 29 32 34 37 39 40 42 42 44 45 47 48 50 51 53 54 56 57 59 61 63 65 66 67 68 68 68 68 67 65 64 64 63 63 63 62 62 61 59 57 57 59 60 58 56 55
37 38 38 39 39 39 41 41 41 43 43 43 43 45 45 46 47 46 45 44 41 39 36 33 31 28 24 20 16 11 7 4 4 10 16 21 24 25 27 29 31 33 35 36 37 37 38 38 40 41 43 46 48 50 52 55 57 59 61 62 65 67 68 69 70 72 72 73 73 72 71 70 69 68 67 66 65 65 65 65 64 64 65 65 64 63
36 36 37 37 36 37 39 39 39 40 41 41 41 41 41 41 41 42 42 41 41 40 38 37 35 33 31 28 25 21 17 13 9 4 6 11 15 18 20 21 21 21 22 22 23 24 26 27 29 31 34 36 39 41 44 46 48 50 52 54 57 59 62 64 66 68 71 73 75 76 76 76 75 74 72 71 69 68 69 69 69 69 69 69 69 67
34 34 35 34 34 35 36 36 36 38 39 39 39 39 38 37 37 37 37 37 37 36 36 36 35 34 33 31 29 26 24 21 18 15 11 8 5 5 6 8 10 11 13 14 15 16 17 18 20 21 23 25 28 30 32 35 37 39 41 43 46 48 51 54 57 60 63 66 69 72 75 76 77 78 77 76 75 73 72 72 73 73 72 72 71 70
33 33 33 33 33 35 35 34 34 35 36 36 36 36 36 35 35 34 33 33 33 33 32 32 32 32 31 30 29 28 26 25 23 21 20 18 17 16 16 17 17 18 19 19 19 20 20 21 21 22 23 23 24 25 26 28 29 31 32 35 37 39 42 45 48 51 54 57 60 63 66 69 72 75 77 78 79 78 78 77 76 76 76 76 75 72
33 33 32 32 33 33 33 32 32 33 33 33 33 33 33 34 33 33 32 31 30 30 29 29 29 28 28 27 27 26 26 25 24 24 23 23 23 23 24 24 24 25 26 27 27 28 29 29 29 29 29 28 28 29 29 29 30 30 30 30 31 33 35 37 40 43 46 50 53 56 59 62 64 67 71 74 77 79 80 80 80 80 80 80 79 77
32 32 32 32 32 31 30 30 30 31 31 31 31 30 31 31 31 31 31 30 29 28 27 26 25 25 25 24 24 23 23 23 24 24 24 25 25 26 26 27 28 29 29 30 31 32 33 33 33 33 34 34 34 34 34 34 34 34 33 33 32 32 33 34 35 37 40 43 46 50 53 56 59 61 63 66 70 73 76 79 81 83 83 83 83 82
32 32 31 31 31 30 29 29 28 29 29 29 29 29 29 29 29 29 29 28 28 27 26 24 23 23 22 22 22 22 22 22 22 23 23 24 24 25 26 28 29 30 31 31 32 33 34 34 35 36 36 37 37 37 37 37 37 37 37 37 36 36 36 36 36 37 38 39 41 44 47 50 54 57 59 60 62 65 68 72 75 79 82 84 84 84
32 32 31 31 30 30 29 29 28 27 27 27 27 27 27 27 27 27 27 27 27 26 26 25 24 22 21 21 21 21 21 21 21 22 22 23 24 25 26 27 29 30 31 32 33 34 34 35 36 37 38 38 39 39 39 39 40 39 39 39 38 38 37 37 37 37 38 39 40 41 43 45 47 50 54 56 58 59 62 65 67 71 74 78 81 83
32 32 31 31 30 29 29 28 27 26 26 25 25 25 25 26 26 26 25 25 25 25 25 25 24 23 22 21 20 20 21 21 21 22 22 23 24 24 25 27 28 29 31 32 34 35 35 36 37 38 38 39 40 41 42 42 42 42 42 41 41 40 39 38 38 37 37 37 38 39 41 43 44 45 47 50 54 56 57 59 61 64 67 70 74 77
32 31 31 30 30 29 28 28 27 26 25 25 24 24 24 24 24 24 24 24 24 23 23 23 23 24 23 23 22 21 21 21 21 22 22 23 24 24 25 26 27 29 30 32 34 35 36 37 38 39 40 41 41 42 43 44 44 45 44 44 43 43 42 41 40 39 38 38 37 37 38 40 42 43 43 44 47 51 53 55 56 58 61 64 67 70
31 31 30 29 29 28 28 27 27 26 25 24 24 23 23 23 23 23 23 23 23 23 22 22 22 22 23 23 23 22 21 21 21 21 22 23 24 25 26 27 28 30 31 32 34 35 37 39 40 41 42 43 43 44 45 46 46 47 47 46 46 46 45 44 43 41 40 39 38 38 37 38 39 40 42 42 43 45 48 51 53 54 56 59 62 65
31 30 30 29 28 27 27 26 26 25 24 24 23 23 22 22 22 22 22 22 22 22 21 21 21 21 22 22 23 23 22 21 21 21 22 23 24 25 27 28 30 31 32 32 34 37 39 40 42 43 44 45 45 46 46 47 47 48 48 48 48 48 48 47 46 44 41 40 39 38 37 37 38 39 39 40 41 42 44 47 49 52 54 55 58 61
30 30 29 28 27 27 26 25 25 24 24 23 22 22 22 22 22 22 22 21 21 21 21 21 20 20 20 21 22 23 23 23 23 23 23 23 25 26 28 30 31 31 32 34 36 39 41 42 43 44 45 47 48 48 49 49 49 50 50 50 51 51 51 50 49 47 44 42 40 39 38 37 36 37 38 39 39 40 42 44 46 49 51 53 55 57
30 30 29 28 27 27 26 26 25 24 24 23 23 22 22 23 22 22 22 22 21 21 21 21 21 20 20 21 22 23 24 25 25 25 25 25 26 27 28 30 31 32 34 36 38 40 42 43 45 46 47 48 49 50 51 51 51 51 52 52 53 53 53 53 52 51 49 45 43 41 39 38 36 35 36 37 38 38 39 41 43 45 48 51 54 55
30 30 29 28 27 27 27 27 26 25 25 24 24 23 23 23 23 23 23 23 22 22 21 21 21 21 21 21 22 24 25 26 27 27 27 26 26 27 28 30 31 33 35 37 39 40 42 44 46 47 48 49 50 52 53 53 54 54 53 54 54 54 55 55 55 55 53 51 47 44 42 40 38 36 35 36 37 38 38 39 40 42 44 48 52 54
31 31 30 29 28 27 27 27 27 27 26 25 24 24 23 23 23 24 24 24 24 24 23 22 22 22 22 23 23 25 26 27 28 28 28 28 28 28 29 30 32 34 36 38 39 41 43 45 47 48 49 50 52 53 54 55 56 56 55 55 55 56 56 57 58 57 57 55 52 49 46 43 41 38 36 36 36 37 38 37 38 39 41 44 48 52
32 32 32 31 29 28 27 27 27 27 26 26 25 25 24 24 24 24 25 25 24 24 24 23 23 23 23 24 24 25 26 27 28 29 30 29 29 29 29 31 33 36 37 39 40 42 44 46 47 49 51 52 53 54 55 56 57 58 57 57 56 57 57 58 59 60 59 58 57 54 51 47 44 40 37 35 35 35 37 37 36 37 38 40 43 47
32 32 32 31 30 29 28 27 27 26 26 25 25 24 24 24 23 23 24 24 24 24 24 24 24 24 24 25 25 26 27 28 29 30 30 30 30 30 30 32 34 36 38 39 41 43 45 47 48 50 52 53 55 56 57 58 59 59 59 58 58 58 58 59 60 61 61 61 60 58 55 52 48 44 41 37 35 34 35 36 36 36 36 37 39 42
32 32 32 31 30 30 29 28 27 26 26 25 24 24 24 24 24 23 23 24 24 24 24 24 24 24 25 25 26 27 28 29 29 30 31 31 31 31 31 32 34 37 39 40 42 43 46 48 50 51 53 55 56 58 58 59 60 61 61 61 60 59 59 59 60 61 62 63 62 61 59 56 52 49 45 42 38 35 34 35 36 36 35 35 37 38
32 32 31 31 31 31 30 29 28 26 25 25 24 24 25 25 26 25 24 24 25 25 25 25 25 25 25 26 26 27 28 29 30 31 31 31 31 30 30 32 34 36 39 41 42 44 46 48 50 52 54 56 57 59 60 61 61 62 63 62 61 61 61 61 61 62 63 63 63 63 62 60 56 53 50 46 42 38 35 34 34 35 35 34 35 36
32 31 31 31 31 31 31 30 29 27 26 26 26 26 27 28 29 28 27 26 26 26 26 26 26 25 25 25 26 27 28 29 29 30 30 31 31 30 30 31 33 36 38 41 43 44 46 49 51 53 55 57 58 60 61 62 63 63 63 63 63 63 62 62 62 63 63 63 64 64 63 62 59 56 52 49 45 41 38 35 33 34 35 34 34 35
33 32 32 31 31 31 31 30 29 29 29 29 29 29 29 29 29 30 29 28 27 27 27 27 27 26 26 25 26 26 27 28 28 28 29 29 30 30 30 31 33 36 38 40 42 44 47 49 51 53 55 57 59 61 62 63 64 64 64 64 64 63 63 64 64 64 64 65 65 65 65 64 62 59 55 52 48 44 41 38 35 33 34 34 34 34
33 32 32 32 32 32 31 31 31 31 31 32 32 31 30 28 28 28 28 28 27 26 26 26 26 26 26 25 25 26 26 27 27 27 27 28 28 28 29 31 33 36 38 40 42 45 47 49 51 53 55 57 59 61 63 64 64 65 65 65 64 64 64 65 65 65 66 66 66 67 67 66 65 62 59 56 53 48 44 41 38 35 34 34 34 35
32 32 32 32 32 31 30 30 32 33 34 34 33 31 29 28 27 27 27 27 27 27 26 25 25 24 24 24 24 25 25 26 25 25 25 26 26 27 29 31 33 36 38 40 42 45 47 49 51 53 55 58 60 62 63 65 65 66 66 65 65 65 65 66 66 66 67 67 67 68 68 68 67 65 62 59 56 53 48 43 40 37 35 34 34 35
32 32 32 32 31 30 29 30 31 32 33 32 31 30 28 28 27 26 26 27 27 27 26 25 24 23 23 22 22 22 23 23 24 24 23 24 25 26 29 31 33 36 38 40 42 45 47 49 51 54 56 58 60 62 64 65 66 66 67 66 66 66 66 67 67 68 68 68 68 69 69 69 68 67 65 61 58 56 52 47 42 39 37 35 34 34
32 32 33 33 32 31 31 31 32 31 30 29 29 29 29 28 27 26 25 25 25 25 26 25 23 22 22 22 21 21 21 21 21 22 22 22 24 27 29 32 34 36 38 40 42 45 47 49 51 54 57 59 61 63 65 66 67 67 67 67 67 67 67 68 68 69 69 69 70 70 70 70 70 69 66 63 60 57 55 51 46 41 38 36 35 35
31 32 33 33 32 33 33 33 31 30 30 30 30 30 30 29 28 26 25 24 24 24 24 23 22 21 21 21 21 21 20 19 19 20 21 22 25 27 30 33 35 37 39 41 43 45 47 49 52 54 57 59 61 63 65 67 68 68 68 68 68 68 68 69 69 70 70 70 71 71 72 72 71 70 68 65 62 59 56 53 49 44 39 36 35 35
31 32 33 33 33 33 32 32 30 29 29 30 31 31 31 30 29 27 26 24 24 24 24 22 21 21 20 20 20 20 19 19 18 19 21 24 26 29 32 34 36 38 40 42 44 46 48 50 52 55 57 60 62 65 67 68 69 69 69 69 69 69 69 70 70 70 71 72 72 72 73 73 72 71 69 66 63 60 58 55 52 48 43 38 35 35
32 33 33 32 31 30 30 30 29 29 29 30 31 31 31 30 29 28 27 26 25 24 23 22 21 21 20 20 20 20 20 19 19 20 22 25 28 30 33 35 37 38 41 43 45 47 49 51 53 56 58 61 64 66 68 69 70 70 70 70 70 70 70 70 71 71 72 73 73 74 74 74 73 72 70 67 65 62 59 57 53 49 45 41 37 35
32 32 32 30 28 27 28 29 30 29 30 31 31 31 30 29 29 28 27 26 25 24 23 23 23 22 22 21 21 21 20 20 20 22 24 27 29 32 34 36 38 40 42 44 47 48 50 53 55 57 60 62 65 67 68 69 70 70 70 70 70 70 71 71 72 72 73 74 74 75 75 75 74 73 71 69 65 63 60 58 54 50 46 43 40 37
31 30 29 27 25 25 27 29 30 30 31 31 32 32 31 29 28 28 27 26 25 24 23 23 23 23 22 22 21 21 20 21 22 25 27 30 32 34 36 37 39 41 44 46 48 50 52 54 57 59 61 63 66 68 69 70 70 70 70 70 70 71 72 72 73 73 74 75 76 76 77 77 76 75 73 70 67 64 61 58 55 51 47 44 42 40
29 27 26 25 25 25 27 29 29 30 31 31 32 32 31 29 28 28 28 27 26 25 24 24 24 24 23 22 22 21 21 22 24 27 29 31 33 35 37 38 41 43 46 48 50 52 54 56 59 61 63 65 67 69 70 70 70 70 70 70 71 72 72 73 74 74 75 76 77 78 78 78 77 76 74 71 67 64 62 59 56 52 49 45 43 41
26 26 25 25 25 26 27 28 28 29 31 31 31 31 31 29 28 28 27 27 27 26 26 25 25 24 24 23 22 22 22 24 26 29 31 33 35 36 38 40 43 46 48 50 52 54 56 58 60 62 65 67 69 71 72 71 71 71 71 71 72 73 73 74 75 76 77 78 78 79 79 79 78 77 75 71 68 64 62 59 56 53 51 48 45 43
24 25 25 25 25 26 27 28 28 29 30 31 31 31 30 30 29 28 28 27 27 27 26 26 26 25 25 24 24 24 25 27 29 31 33 35 36 38 40 42 45 48 50 52 54 56 58 60 62 64 66 68 70 72 73 72 71 71 72 72 73 74 74 75 76 77 78 79 79 80 79 79 79 78 76 72 68 65 61 59 56 54 51 50 48 46
24 25 25 25 26 26 28 29 29 29 30 31 31 31 30 30 29 29 28 28 27 27 27 27 27 26 26 25 25 26 27 29 31 32 34 36 38 40 42 45 47 50 52 54 56 57 59 61 64 66 68 70 71 72 73 72 72 73 73 74 75 76 77 78 79 79 79 79 80 80 80 80 79 78 76 73 69 65 62 59 56 54 51 51 51 49
24 25 26 26 27 27 29 30 30 31 31 32 32 32 31 30 30 29 29 28 28 27 27 27 27 27 27 27 27 28 29 31 33 34 35 37 39 41 44 46 49 51 53 55 57 59 61 63 66 69 71 71 72 72 72 72 73 73 74 75 76 78 79 80 81 81 80 79 79 79 80 80 79 78 76 73 70 66 63 59 56 54 52 51 51 52
24 26 28 28 29 29 30 31 31 31 32 32 33 32 31 31 30 30 30 29 29 28 28 28 28 27 27 28 29 30 31 32 34 35 36 38 40 42 45 48 50 53 55 58 60 61 64 66 69 71 72 72 72 72 72 72 73 74 75 77 79 80 81 82 82 82 81 80 79 79 79 79 79 77 75 73 71 67 63 59 56 54 53 52 52 53
26 27 29 30 30 30 30 31 32 32 32 32 32 33 32 32 31 31 31 31 30 29 29 28 28 28 28 29 30 31 32 33 34 36 37 39 41 44 47 49 52 55 58 60 63 65 67 70 72 73 73 73 72 72 72 73 74 75 77 79 80 82 83 83 83 82 81 80 79 78 79 79 78 77 75 73 71 68 64 60 56 53 53 52 53 54
27 28 29 30 31 31 31 31 32 32 32 33 33 33 33 33 33 33 33 33 32 31 30 29 29 29 29 30 31 32 33 34 36 37 39 41 44 47 49 52 55 58 61 63 65 68 70 72 74 74 74 73 72 72 73 74 75 77 78 80 82 83 84 84 83 81 80 79 78 78 78 79 78 77 75 73 70 67 64 60 58 56 54 52 53 54
Wind_Direction
57 54 52 50 47 44 41 38 35 31 24 354 264 227 220 220 222 225 228 226 223 223 225 227 230 229 225 216 209 205 205 210 215 218 220 222 223 223 227 229 228 226 225 225 224 223 221 219 222 226 229 227 224 228 234 238 244 246 246 247 246 246 247 247 247 248 250 251 252 253 255 255 255 256 256 257 257 257 258 259 261 262 263 263 264 264
56 54 52 49 46 42 39 36 34 32 30 21 298 216 206 206 213 222 228 227 223 224 226 229 231 233 232 226 217 210 207 209 212 214 215 219 221 219 220 219 215 216 219 222 223 223 225 224 226 227 228 228 228 230 233 238 245 249 250 251 250 249 249 250 251 251 252 253 253 254 255 257 257 258 258 258 258 258 258 259 260 261 262 263 264 265
54 52 50 48 44 41 37 34 32 32 32 33 43 187 194 196 202 205 215 221 219 222 225 230 233 234 235 234 228 221 215 212 212 213 213 215 218 218 215 211 209 214 219 224 227 229 232 234 235 236 234 234 235 237 239 243 249 253 255 256 255 254 254 254 255 257 258 258 258 258 258 259 260 260 260 260 259 259 259 259 259 259 260 261 262 263
51 50 48 47 44 41 37 34 33 34 36 37 46 93 169 189 198 189 187 207 213 214 219 227 233 233 233 234 233 229 223 218 215 214 213 213 216 217 215 213 214 216 222 230 234 236 240 242 243 244 243 242 242 243 243 246 252 257 259 259 259 258 257 257 258 259 261 262 262 263 264 264 264 263 262 261 261 261 260 260 259 259 259 259 260 260
50 49 49 48 45 42 39 37 35 35 38 40 46 62 109 156 183 183 179 191 202 207 211 219 231 233 230 229 229 230 228 224 220 215 213 213 216 218 218 219 220 221 228 239 244 245 247 250 252 253 254 252 250 249 250 253 258 262 262 262 262 261 261 260 259 259 261 262 263 265 267 268 270 269 267 265 264 264 264 263 261 260 259 259 258 258
51 50 49 48 47 45 43 41 39 38 40 42 46 54 68 108 163 173 167 169 183 199 205 211 227 230 228 229 230 233 233 229 223 216 214 215 217 220 223 227 228 229 236 246 253 256 257 261 263 265 266 266 263 258 256 257 260 264 266 266 266 265 265 265 264 263 263 263 264 265 268 271 275 276 273 270 269 268 267 266 263 261 259 258 257 257
51 51 50 50 49 47 46 44 42 41 43 44 47 52 59 74 134 161 163 165 172 188 200 208 224 231 234 239 243 246 243 233 224 216 215 218 220 222 226 233 237 239 244 251 259 266 269 272 275 276 277 279 279 276 272 269 267 268 269 269 269 269 269 269 268 268 266 265 264 264 267 272 278 281 280 277 275 273 271 268 267 264 261 259 259 258
51 51 51 50 49 48 48 46 44 44 46 47 49 53 59 67 89 132 152 153 149 161 182 199 220 236 244 252 257 260 253 240 227 219 219 222 226 227 229 236 242 246 250 255 262 270 275 277 280 282 282 283 284 286 287 286 284 283 281 278 275 273 272 271 271 270 269 268 266 264 265 266 268 274 280 280 278 277 276 273 270 268 265 264 262 261
50 50 50 50 49 48 49 48 47 47 48 49 52 55 59 65 73 93 115 118 122 138 151 168 205 238 248 258 269 274 268 249 233 226 226 231 235 236 236 240 245 248 252 256 263 270 274 276 278 280 282 284 284 285 287 288 289 290 289 288 285 282 278 275 273 272 271 271 270 269 268 265 261 261 265 269 272 275 277 278 276 272 269 267 266 265
49 49 48 49 48 49 50 49 49 50 50 51 54 57 60 65 71 79 88 92 94 98 99 101 98 255 248 261 277 287 279 256 241 235 235 239 245 246 245 249 254 257 260 263 269 274 275 275 275 275 275 277 279 279 280 282 283 284 285 285 286 286 284 283 280 278 275 273 273 272 270 268 266 263 261 263 266 267 268 271 273 272 271 269 268 268
48 48 47 48 48 49 50 50 50 51 51 52 55 57 60 64 68 71 73 74 74 73 73 71 64 55 37 295 279 285 276 255 242 236 236 243 252 256 257 261 264 267 270 273 278 280 280 279 278 277 275 273 273 273 274 275 276 276 277 278 279 280 281 282 282 281 279 278 276 274 272 271 269 268 266 265 265 265 264 264 264 266 268 269 268 268
46 46 46 46 46 48 49 49 50 52 52 52 54 56 58 61 63 65 67 67 68 68 68 68 68 67 64 59 51 10 297 261 243 237 238 245 254 262 267 271 275 278 281 284 286 285 285 283 281 280 278 276 275 275 274 274 274 274 274 274 275 276 276 276 277 277 277 277 276 275 274 272 271 269 268 267 266 265 264 263 262 262 264 265 266 266
45 44 44 44 44 45 48 48 49 51 52 52 54 56 57 59 61 63 65 65 66 66 67 67 67 67 66 64 62 56 43 17 281 254 251 253 259 267 275 281 285 288 289 290 291 290 289 288 286 284 282 280 279 279 278 278 277 277 276 275 275 275 274 273 273 272 272 273 273 273 272 271 270 268 267 266 266 265 263 262 261 261 262 262 263 265
45 44 44 44 43 43 46 46 47 50 51 51 53 55 56 58 60 62 63 65 65 66 66 66 66 66 65 65 63 62 59 53 42 4 291 274 273 278 285 291 295 299 302 304 305 305 303 301 298 296 293 291 289 287 286 285 284 283 282 281 280 278 277 275 274 272 271 270 270 270 270 270 269 267 266 264 262 262 262 261 261 261 260 261 261 263
45 45 44 44 43 43 44 43 44 47 50 50 51 54 55 57 58 60 61 63 64 65 65 66 66 66 67 67 67 66 66 66 64 62 58 50 27 2 352 350 351 351 351 348 345 341 336 331 326 321 317 312 308 304 300 297 294 292 290 289 287 285 283 281 279 277 274 273 271 270 269 268 268 266 265 263 261 260 259 259 259 259 259 260 260 261
44 44 44 43 42 43 43 41 41 43 46 48 49 51 53 55 56 57 58 59 61 62 62 63 64 64 65 65 65 65 66 66 65 65 63 61 56 50 44 37 31 26 22 18 13 9 4 0 356 351 346 340 334 329 323 318 312 307 302 298 294 291 288 286 284 282 280 277 275 273 271 269 268 266 265 263 261 260 258 257 256 256 257 258 259 260
42 42 42 42 42 42 42 41 40 41 42 43 45 47 49 51 53 54 54 54 55 56 57 58 59 60 60 60 60 60 59 59 57 56 53 50 46 42 38 33 29 25 21 18 15 12 9 6 3 359 356 352 348 345 341 337 333 328 322 315 309 303 298 293 289 286 283 281 279 277 275 273 271 269 266 265 262 261 259 257 256 255 254 255 257 258
40 39 39 40 41 41 41 40 40 40 41 40 40 42 44 46 48 50 51 51 51 51 52 52 53 54 54 53 53 52 52 50 49 47 44 42 39 35 32 29 25 21 18 15 13 11 8 6 3 0 358 355 353 351 348 345 343 340 337 333 327 321 314 308 302 295 290 285 282 279 277 276 274 272 270 268 265 263 261 258 257 256 254 254 254 255
38 38 38 38 38 39 38 38 37 38 38 38 37 38 39 41 42 44 46 47 47 47 48 48 48 48 47 46 45 45 43 42 41 39 38 36 34 31 28 26 23 20 17 14 12 10 7 5 3 1 359 357 355 353 351 349 347 345 343 341 338 333 328 323 317 311 304 297 290 285 281 278 276 275 273 271 269 266 264 261 259 257 256 254 254 254
34 35 35 35 36 35 35 35 35 34 34 34 34 34 35 36 37 38 39 40 41 42 42 42 41 41 40 39 38 37 36 34 33 31 30 28 27 25 23 22 20 18 15 13 10 8 6 4 2 1 0 358 356 355 353 351 350 348 347 345 342 339 335 330 325 321 316 309 303 296 290 284 279 276 275 274 272 269 267 264 262 259 257 255 254 254
30 31 31 32 33 33 33 33 33 32 31 31 30 30 30 31 32 32 33 34 34 34 35 35 34 34 32 31 30 29 28 27 26 24 23 22 20 19 18 17 16 14 13 11 9 6 4 3 2 2 0 359 358 356 354 353 351 350 349 347 345 343 340 335 331 326 322 317 311 304 297 292 287 282 278 275 274 272 270 267 265 263 260 258 255 254
27 27 27 28 29 29 30 30 31 30 29 28 27 27 27 27 27 27 27 27 28 27 28 28 28 28 27 25 23 21 20 19 19 18 17 16 15 13 12 11 10 10 9 8 6 4 3 2 2 1 360 359 358 357 355 353 352 351 350 349 348 346 344 341 337 333 329 325 320 313 304 297 293 289 284 280 276 274 272 270 267 264 262 260 258 255
24 24 24 24 24 24 25 26 27 27 27 26 24 24 23 24 24 23 22 21 21 20 21 21 21 21 22 21 19 17 14 12 11 10 10 10 9 8 7 7 6 6 5 4 2 2 1 1 1 359 358 358 358 357 356 354 352 351 350 350 349 348 346 344 342 339 336 333 329 323 314 305 298 292 289 286 282 277 274 272 270 267 264 261 259 257
20 20 20 20 21 21 20 21 21 22 23 23 22 21 20 20 20 19 18 16 15 13 13 15 15 15 16 16 14 13 11 9 6 4 3 3 3 4 3 3 3 2 0 359 359 0 1 360 359 358 357 357 357 357 356 354 352 351 350 350 350 349 348 347 345 343 341 338 335 330 324 315 306 298 293 289 286 283 278 274 271 269 266 263 260 258
16 16 15 15 16 17 16 16 16 16 17 17 17 16 15 15 14 13 13 11 8 7 7 8 9 9 9 10 10 8 7 6 4 1 359 358 358 359 360 360 359 358 356 357 358 359 359 358 357 356 356 355 355 355 354 353 352 351 350 350 350 350 349 348 347 346 344 342 339 336 331 323 314 305 299 294 290 286 283 278 273 269 267 265 262 259
11 11 11 11 11 11 10 10 10 10 10 10 10 10 10 8 6 5 5 4 3 2 2 2 3 3 3 4 5 4 2 2 1 360 358 356 355 355 355 356 355 354 354 356 357 357 357 356 355 354 354 354 353 353 353 352 351 351 350 350 350 350 350 349 349 348 347 346 344 341 337 331 323 314 305 299 295 291 287 283 278 272 268 265 263 260
6 6 6 7 6 6 5 4 4 4 4 4 3 3 3 1 359 358 358 358 358 358 359 358 357 357 358 360 0 359 358 358 357 357 356 354 353 351 350 351 351 353 354 355 355 355 354 354 353 353 353 352 352 352 351 351 350 350 350 350 350 350 350 350 350 350 349 348 347 345 342 338 332 324 314 306 301 296 292 288 283 278 272 266 263 261
360 0 1 2 3 3 2 0 359 359 359 359 358 357 358 357 355 353 353 354 354 354 354 354 353 353 353 354 356 355 355 355 354 353 353 352 351 348 347 347 349 352 353 353 353 352 352 352 352 351 351 351 351 350 350 349 349 349 349 349 349 350 350 349 349 350 350 349 348 347 345 343 338 332 323 314 306 301 298 293 288 283 277 271 265 261
355 355 356 357 358 359 360 358 356 355 355 356 355 354 354 354 353 351 349 350 350 350 350 349 349 349 349 349 350 350 351 351 350 350 350 349 349 347 345 346 348 350 351 351 351 350 351 350 350 350 350 350 350 350 349 349 348 348 348 348 349 349 349 349 349 349 349 349 349 348 346 344 342 337 330 321 313 306 302 298 294 289 283 277 270 264
350 351 352 352 353 354 356 355 354 353 353 354 353 353 352 351 351 350 347 345 345 345 345 345 345 345 345 345 345 345 345 346 347 347 347 347 346 345 344 345 346 347 349 349 349 349 349 349 349 349 349 349 349 349 349 348 348 347 347 347 347 348 348 348 348 348 348 348 348 347 346 345 343 340 336 329 321 313 307 303 300 295 290 283 276 269
346 347 348 348 348 349 351 353 353 353 352 352 351 350 348 346 346 345 342 340 339 338 339 339 340 340 340 340 339 339 340 342 344 345 345 344 344 343 343 343 344 345 346 347 348 348 347 348 348 348 348 348 348 348 348 348 347 347 346 346 346 346 347 347 347 347 347 347 347 347 346 345 344 342 339 335 329 321 313 307 304 301 296 290 283 275
343 344 344 344 345 346 348 350 351 351 350 349 347 345 343 340 338 337 336 333 332 331 331 332 333 333 334 333 333 334 336 338 341 342 341 341 341 341 341 342 342 343 344 345 346 346 346 346 347 347 348 348 347 347 347 347 347 346 345 345 345 345 345 346 346 346 345 345 345 345 345 344 343 342 340 337 333 326 319 312 307 304 301 296 290 282
340 341 341 341 342 343 346 348 349 347 346 344 343 341 338 335 332 331 330 329 327 325 325 325 326 327 327 327 328 329 332 334 337 338 338 337 338 339 340 340 341 341 342 343 344 344 345 345 346 346 347 347 347 347 346 346 346 345 345 344 344 344 344 345 345 344 344 344 344 344 343 343 342 342 340 338 335 330 324 317 310 307 304 301 296 289
337 338 338 338 340 343 345 346 345 343 341 340 339 338 336 334 331 329 328 327 325 323 321 321 321 323 323 324 325 326 328 330 333 335 335 335 335 337 338 339 340 340 341 341 342 343 344 344 345 345 346 346 346 346 346 345 345 344 344 343 343 343 343 343 343 343 343 343 343 342 342 342 341 341 340 338 336 333 328 322 315 310 307 305 301 296
334 335 335 336 339 342 345 344 341 339 338 338 337 337 337 336 333 330 328 327 326 323 321 320 321 322 322 322 323 323 324 327 330 333 334 333 334 335 337 338 339 340 340 340 341 342 342 343 343 343 344 345 345 345 345 344 344 343 343 342 342 342 342 342 342 342 342 342 341 341 341 340 340 340 339 338 336 334 331 326 319 313 308 306 304 301
332 332 332 333 338 342 344 341 338 337 336 336 337 339 339 339 337 334 330 328 326 325 324 324 324 323 322 322 321 321 322 325 328 331 332 332 332 334 336 338 339 339 339 339 340 341 341 341 341 342 343 344 344 344 344 343 343 342 341 341 342 342 341 341 341 340 340 340 340 339 339 339 339 339 339 338 336 334 332 328 322 316 311 307 305 304
329 329 329 331 337 341 341 337 335 335 335 337 338 340 342 341 339 335 331 328 326 324 325 326 327 326 324 322 320 320 321 324 327 329 331 332 333 335 337 338 338 339 339 339 339 340 340 340 340 340 341 342 343 343 343 342 342 341 340 340 341 341 340 340 339 339 339 339 339 338 338 337 337 337 337 337 335 333 331 329 325 319 313 309 306 304
327 327 327 331 337 339 337 335 336 336 337 339 340 342 344 343 340 337 334 329 326 324 324 327 328 328 326 323 322 322 324 326 327 329 332 334 335 336 337 338 338 338 338 338 338 338 338 338 339 339 340 341 341 342 342 341 340 340 340 340 340 340 339 339 338 338 338 338 338 337 336 336 336 336 336 336 335 333 331 329 326 321 315 310 307 305
325 325 327 332 337 337 335 335 337 339 341 342 343 344 345 344 342 340 336 332 328 325 326 329 330 329 326 324 323 325 327 329 330 332 335 337 337 338 338 338 338 337 337 337 337 337 337 337 338 338 339 339 340 340 340 340 340 339 339 339 339 339 338 337 337 337 337 337 336 336 335 334 334 334 334 335 334 332 330 328 325 322 317 312 308 305
323 323 327 333 337 336 333 334 339 342 342 343 345 346 345 344 342 340 337 334 331 329 330 331 330 329 327 325 324 327 330 333 335 336 337 338 338 338 338 337 337 337 336 336 336 336 336 336 336 337 337 338 339 339 339 339 339 339 338 338 338 337 337 336 336 336 336 335 335 334 334 333 332 333 333 334 333 332 330 328 325 322 318 313 309 305
321 323 328 334 337 335 333 334 339 343 343 343 345 346 346 344 342 340 339 337 336 335 334 333 331 330 330 328 328 331 333 335 338 339 339 338 338 338 337 337 336 336 335 335 335 334 334 334 335 336 337 337 338 338 338 338 338 337 337 337 336 336 335 335 335 335 334 334 334 333 332 332 331 331 332 333 333 331 329 327 324 321 318 314 310 306
321 325 331 336 337 335 333 334 339 343 343 344 345 346 346 345 343 340 340 339 339 338 336 334 333 333 333 332 331 332 334 336 338 339 339 338 338 337 337 336 335 335 334 334 334 333 334 334 335 336 337 337 336 337 337 337 336 336 336 335 335 334 334 334 334 334 333 333 332 332 331 330 330 330 331 332 332 330 328 326 323 320 317 314 311 307
323 329 334 337 337 335 333 335 339 342 342 343 345 345 345 345 343 340 339 339 340 339 337 336 336 336 335 334 333 334 335 336 338 338 338 337 337 337 336 336 335 334 334 333 333 333 334 335 335 336 336 336 335 335 336 336 335 335 334 334 333 333 333 333 333 333 332 332 331 330 330 329 329 329 330 331 331 329 327 325 322 319 317 314 312 309
326 333 335 335 336 335 334 335 339 340 340 341 343 344 344 345 343 340 338 338 338 338 338 337 337 336 336 335 334 335 335 336 337 337 337 336 336 336 335 334 334 334 333 333 333 334 334 335 335 335 335 335 334 334 334 334 334 334 333 333 332 332 332 332 332 332 332 331 330 329 329 328 327 327 328 329 330 328 327 325 322 319 316 314 312 309
329 332 333 333 335 335 334 335 338 339 338 339 341 342 343 344 341 339 337 336 337 337 337 337 337 336 336 335 335 335 335 335 335 335 335 335 335 335 334 334 334 334 333 334 334 335 335 335 335 334 334 334 334 333 333 333 333 332 332 332 331 331 331 331 331 331 331 330 329 328 327 327 326 326 327 328 328 328 326 324 322 319 316 314 312 309
330 330 330 333 335 335 334 335 337 336 335 335 337 339 342 342 341 338 336 335 335 335 336 336 336 336 336 335 335 334 334 334 334 335 334 334 334 334 334 334 334 333 334 334 334 334 334 334 333 333 333 333 333 333 332 332 332 332 331 331 331 331 331 331 331 331 330 329 328 327 326 325 325 325 326 327 328 327 326 324 321 319 316 314 312 309
328 327 329 332 335 334 333 334 334 333 331 332 334 336 339 341 339 337 335 334 334 334 334 334 334 334 335 334 333 333 332 333 333 333 333 333 333 333 333 333 333 333 333 333 333 333 333 332 332 332 333 334 333 332 332 331 331 331 331 331 331 331 331 331 330 330 329 329 327 326 325 324 324 324 325 327 327 327 326 324 321 318 316 314 311 309
326 325 327 330 332 332 331 330 330 329 328 329 331 333 335 338 338 336 334 333 332 333 333 333 333 333 333 332 332 331 331 331 331 331 332 332 332 332 332 333 333 333 332 332 331 331 331 331 332 333 334 334 333 332 331 331 331 332 332 332 332 332 331 330 329 329 328 328 326 325 324 323 322 324 325 326 326 326 325 323 321 318 316 314 311 309
323 325 327 329 330 331 329 328 327 327 327 327 329 330 332 334 335 335 334 333 332 332 332 332 332 332 332 330 329 329 329 329 330 330 330 330 331 331 332 332 332 331 330 330 330 331 331 332 334 334 334 333 332 331 331 331 332 332 333 332 332 331 330 329 328 328 327 327 326 324 322 322 322 324 325 325 326 325 324 323 321 318 316 314 312 309
326 328 330 330 330 331 330 328 327 327 327 327 328 329 331 332 333 333 333 333 332 331 331 331 331 331 330 328 327 327 328 328 328 328 328 329 330 330 331 331 330 330 330 330 330 331 332 334 335 334 334 333 332 331 331 332 333 333 333 333 332 331 330 329 328 327 326 326 324 323 321 321 323 324 325 325 325 325 323 322 321 319 316 314 312 309
330 332 332 332 332 332 332 331 330 330 330 330 330 330 330 330 331 331 332 332 333 332 332 331 330 328 327 326 327 327 328 328 327 327 327 328 330 330 330 329 329 330 330 331 331 332 333 334 334 334 333 332 332 331 332 333 334 334 334 333 332 331 329 328 327 326 325 324 323 322 321 322 323 325 325 325 325 324 323 322 321 318 316 315 313 309
Height
10645 10644 10643 10642 10640 10638 10636 10634 10631 10627 10623 10620 10618 10618 10619 10621 10622 10624 10625 10627 10629 10630 10631 10631 10632 10634 10637 10641 10644 10648 10651 10653 10653 10655 10656 10657 10658 10660 10660 10659 10659 10658 10658 10657 10657 10657 10656 10656 10656 10657 10657 10658 10659 10659 10659 10660 10661 10662 10663 10663 10663 10663 10662 10662 10662 10662 10662 10662 10663 10663 10664 10665 10666 10667 10667 10668 10668 10668 10668 10669 10669 10670 10671 10672 10672 10673
10649 10648 10646 10643 10641 10638 10635 10632 10629 10624 10620 10616 10613 10613 10614 10615 10618 10620 10622 10625 10627 10629 10630 10631 10632 10633 10635 10639 10643 10646 10649 10650 10651 10653 10654 10655 10657 10658 10658 10657 10657 10656 10654 10653 10653 10653 10653 10652 10652 10652 10653 10655 10656 10655 10656 10657 10658 10659 10659 10659 10658 10658 10658 10659 10658 10658 10658 10659 10659 10659 10660 10661 10661 10662 10662 10662 10662 10662 10662 10663 10664 10665 10665 10666 10667 10668
10651 10648 10645 10642 10640 10637 10633 10630 10627 10622 10616 10611 10609 10608 10610 10611 10614 10618 10620 10623 10625 10628 10632 10633 10633 10633 10635 10639 10642 10644 10647 10648 10649 10650 10651 10653 10655 10655 10655 10654 10653 10652 10651 10651 10651 10651 10651 10650 10650 10650 10652 10653 10653 10654 10655 10656 10656 10655 10655 10655 10655 10655 10655 10655 10655 10655 10654 10655 10655 10655 10656 10657 10657 10658 10658 10658 10657 10657 10657 10658 10658 10659 10659 10660 10661 10662
10651 10649 10646 10644 10641 10637 10634 10631 10627 10621 10614 10609 10606 10606 10607 10608 10610 10615 10619 10621 10624 10629 10633 10634 10633 10633 10636 10638 10640 10642 10644 10646 10647 10648 10650 10652 10652 10652 10652 10651 10650 10650 10650 10650 10650 10650 10649 10649 10649 10649 10650 10650 10651 10652 10653 10653 10652 10652 10652 10652 10653 10653 10652 10652 10651 10651 10650 10651 10652 10652 10653 10653 10653 10653 10653 10653 10652 10652 10652 10653 10653 10653 10654 10655 10656 10656
10655 10653 10651 10647 10644 10642 10640 10636 10630 10623 10615 10609 10606 10605 10606 10607 10609 10613 10618 10622 10625 10629 10632 10634 10633 10635 10636 10637 10638 10640 10642 10644 10646 10648 10649 10650 10650 10650 10649 10648 10648 10649 10649 10648 10648 10648 10648 10647 10648 10649 10648 10648 10649 10650 10650 10650 10649 10649 10648 10649 10649 10649 10649 10648 10647 10647 10647 10648 10649 10649 10649 10649 10650 10650 10649 10649 10648 10648 10648 10648 10648 10649 10650 10650 10651 10651
10660 10658 10654 10651 10650 10649 10646 10639 10633 10627 10618 10612 10609 10607 10606 10608 10609 10613 10618 10622 10624 10627 10631 10634 10635 10635 10636 10637 10637 10639 10641 10643 10645 10646 10648 10648 10648 10648 10648 10647 10648 10649 10648 10647 10647 10646 10646 10646 10646 10646 10646 10645 10646 10647 10648 10647 10646 10645 10645 10645 10644 10644 10644 10644 10643 10643 10644 10645 10645 10646 10646 10647 10647 10646 10646 10645 10645 10644 10644 10644 10644 10644 10645 10645 10645 10646
10665 10662 10660 10659 10657 10654 10648 10641 10637 10632 10623 10617 10614 10610 10609 10610 10611 10614 10619 10623 10625 10627 10631 10634 10635 10636 10636 10637 10638 10640 10641 10643 10644 10645 10646 10647 10647 10647 10647 10647 10648 10648 10648 10647 10647 10645 10645 10644 10644 10643 10643 10642 10641 10642 10643 10642 10642 10642 10641 10641 10640 10640 10639 10638 10638 10638 10638 10640 10641 10642 10643 10645 10645 10644 10643 10642 10641 10640 10640 10639 10639 10639 10640 10639 10640 10640
10669 10667 10665 10663 10660 10656 10649 10645 10642 10637 10630 10625 10621 10617 10615 10615 10616 10618 10622 10627 10629 10631 10634 10635 10636 10637 10638 10639 10640 10641 10642 10643 10644 10645 10645 10645 10645 10646 10646 10647 10647 10647 10647 10647 10646 10645 10644 10643 10642 10641 10640 10640 10638 10637 10637 10636 10635 10635 10635 10635 10635 10634 10634 10633 10633 10632 10632 10633 10635 10636 10637 10640 10642 10641 10640 10638 10637 10636 10635 10634 10634 10634 10634 10634 10634 10634
10672 10671 10668 10665 10662 10658 10653 10650 10648 10643 10638 10634 10629 10624 10622 10621 10622 10624 10628 10631 10633 10635 10636 10638 10638 10639 10640 10640 10641 10642 10642 10643 10644 10645 10645 10645 10645 10645 10646 10646 10646 10646 10646 10645 10645 10644 10643 10642 10641 10639 10637 10637 10636 10635 10633 10631 10630 10629 10628 10628 10628 10628 10628 10627 10627 10627 10626 10626 10626 10627 10629 10632 10634 10635 10634 10633 10632 10632 10631 10630 10629 10628 10628 10629 10629 10629
10676 10674 10671 10667 10665 10661 10658 10656 10654 10649 10645 10642 10637 10633 10631 10629 10629 10631 10633 10635 10636 10637 10638 10639 10639 10640 10640 10641 10642 10643 10643 10644 10645 10645 10646 10645 10646 10646 10646 10646 10645 10645 10645 10644 10644 10643 10642 10641 10639 10638 10636 10634 10633 10632 10630 10628 10626 10624 10622 10621 10620 10619 10618 10618 10619 10619 10619 10619 10619 10618 10619 10620 10622 10624 10625 10625 10625 10626 10626 10625 10624 10623 10622 10623 10623 10623
10678 10676 10673 10671 10668 10665 10663 10661 10658 10655 10652 10649 10645 10641 10639 10637 10636 10635 10636 10637 10638 10639 10639 10640 10640 10641 10641 10642 10642 10643 10643 10644 10645 10646 10646 10646 10646 10646 10646 10645 10645 10644 10643 10643 10642 10641 10640 10638 10637 10635 10633 10632 10630 10629 10627 10625 10623 10621 10619 10617 10614 10613 10611 10609 10608 10608 10609 10609 10610 10610 10610 10610 10611 10612 10614 10615 10617 10619 10620 10619 10617 10616 10616 10617 10617 10617
10680 10678 10676 10673 10671 10670 10667 10665 10663 10660 10657 10655 10651 10648 10646 10643 10641 10640 10640 10640 10641 10641 10641 10641 10642 10642 10642 10643 10643 10643 10644 10644 10645 10646 10647 10647 10646 10646 10646 10645 10644 10643 10642 10641 10640 10638 10637 10635 10633 10631 10629 10627 10625 10624 10622 10621 10619 10617 10615 10613 10610 10608 10606 10604 10602 10600 10599 10599 10599 10599 10599 10599 10600 10601 10602 10604 10605 10608 10610 10610 10608 10607 10607 10608 10608 10608
10683 10681 10678 10676 10675 10673 10671 10669 10667 10664 10662 10660 10657 10654 10652 10650 10648 10647 10646 10645 10645 10645 10644 10644 10644 10643 10644 10643 10644 10644 10644 10644 10645 10646 10646 10647 10646 10646 10645 10644 10643 10641 10639 10638 10636 10634 10632 10630 10628 10626 10624 10622 10621 10619 10617 10615 10613 10611 10609 10607 10604 10601 10598 10596 10595 10592 10591 10590 10589 10588 10588 10588 10588 10589 10590 10592 10593 10595 10597 10598 10598 10597 10596 10597 10597 10598
10686 10684 10681 10680 10679 10677 10674 10673 10671 10668 10666 10664 10662 10660 10658 10657 10655 10653 10652 10651 10650 10650 10649 10648 10647 10646 10646 10645 10645 10645 10645 10645 10645 10645 10646 10646 10646 10645 10645 10643 10642 10640 10638 10636 10634 10631 10629 10627 10625 10622 10620 10618 10616 10613 10611 10609 10607 10604 10601 10599 10596 10593 10590 10587 10586 10584 10582 10580 10579 10578 10577 10576 10577 10577 10578 10579 10581 10583 10584 10586 10586 10586 10586 10586 10586 10588
10689 10687 10685 10683 10682 10679 10677 10676 10674 10672 10670 10668 10667 10665 10664 10662 10660 10659 10658 10656 10655 10654 10653 10652 10651 10650 10650 10649 10648 10648 10647 10647 10647 10647 10647 10647 10647 10646 10645 10643 10641 10640 10637 10635 10633 10630 10628 10625 10622 10619 10617 10614 10611 10608 10606 10603 10601 10598 10595 10592 10589 10585 10582 10579 10577 10574 10572 10570 10569 10567 10566 10565 10564 10565 10565 10566 10568 10570 10572 10574 10575 10575 10575 10576 10576 10578
10692 10690 10688 10687 10684 10681 10679 10678 10677 10675 10673 10672 10671 10669 10668 10666 10664 10663 10662 10660 10659 10658 10657 10656 10655 10654 10653 10652 10652 10651 10651 10650 10650 10649 10649 10648 10647 10646 10644 10643 10641 10639 10636 10634 10632 10629 10626 10623 10620 10617 10614 10611 10608 10604 10601 10598 10596 10593 10590 10587 10583 10580 10576 10572 10569 10566 10563 10561 10559 10557 10555 10554 10553 10552 10552 10553 10555 10557 10559 10561 10563 10565 10565 10565 10566 10568
10695 10693 10691 10689 10686 10684 10683 10681 10679 10678 10676 10675 10674 10673 10671 10669 10667 10666 10664 10663 10662 10660 10659 10658 10657 10656 10655 10654 10654 10653 10653 10652 10651 10650 10649 10648 10646 10645 10643 10641 10639 10637 10634 10632 10629 10626 10623 10620 10617 10614 10611 10608 10604 10601 10597 10593 10590 10587 10584 10581 10578 10574 10570 10566 10563 10559 10556 10553 10550 10547 10545 10543 10542 10542 10541 10541 10542 10544 10546 10548 10550 10552 10554 10555 10556 10558
10697 10695 10693 10691 10689 10687 10686 10684 10683 10681 10679 10677 10676 10675 10673 10671 10670 10668 10666 10665 10664 10662 10661 10660 10659 10658 10657 10656 10655 10654 10654 10653 10651 10650 10648 10647 10645 10643 10641 10639 10637 10635 10632 10629 10626 10623 10620 10617 10614 10611 10608 10604 10601 10597 10593 10589 10586 10582 10579 10576 10572 10568 10564 10560 10556 10553 10549 10546 10543 10540 10536 10534 10532 10531 10530 10530 10530 10531 10533 10535 10537 10539 10541 10544 10546 10547
10699 10697 10695 10693 10691 10689 10688 10686 10684 10682 10681 10679 10678 10676 10674 10673 10672 10670 10668 10667 10666 10665 10663 10662 10661 10660 10658 10657 10656 10655 10654 10652 10651 10649 10647 10646 10644 10642 10640 10638 10636 10633 10631 10628 10625 10622 10620 10617 10613 10610 10606 10602 10598 10595 10591 10587 10583 10579 10574 10571 10567 10563 10558 10554 10550 10546 10542 10539 10535 10532 10529 10526 10524 10521 10520 10520 10520 10520 10521 10522 10524 10526 10528 10531 10534 10536
10700 10698 10696 10694 10692 10691 10689 10687 10685 10684 10682 10681 10679 10678 10676 10674 10673 10671 10670 10668 10667 10666 10664 10663 10662 10660 10659 10658 10656 10655 10653 10652 10650 10648 10647 10645 10643 10641 10639 10637 10635 10632 10630 10627 10624 10621 10618 10615 10612 10608 10604 10601 10597 10593 10588 10584 10580 10576 10571 10567 10563 10559 10554 10550 10545 10541 10537 10532 10529 10525 10522 10519 10516 10514 10511 10510 10509 10509 10510 10510 10512 10514 10516 10518 10521 10524
10701 10699 10697 10696 10694 10692 10690 10689 10687 10685 10684 10682 10680 10679 10677 10675 10674 10672 10671 10669 10668 10666 10665 10663 10662 10660 10659 10658 10656 10655 10653 10651 10649 10647 10646 10644 10642 10640 10638 10635 10633 10631 10629 10626 10622 10620 10617 10614 10610 10606 10603 10599 10595 10590 10586 10581 10577 10572 10568 10564 10560 10555 10551 10546 10541 10537 10532 10528 10523 10519 10515 10511 10508 10506 10504 10502 10500 10499 10499 10500 10500 10502 10503 10505 10508 10511
10702 10700 10698 10697 10695 10693 10692 10690 10689 10687 10685 10683 10681 10680 10678 10676 10674 10673 10671 10670 10668 10667 10665 10664 10662 10661 10659 10657 10656 10654 10652 10650 10649 10647 10645 10643 10641 10639 10636 10634 10632 10629 10627 10624 10621 10618 10615 10611 10607 10604 10600 10597 10592 10588 10583 10579 10574 10569 10565 10560 10556 10551 10547 10542 10537 10532 10527 10522 10518 10513 10509 10505 10501 10498 10496 10495 10493 10491 10490 10490 10490 10491 10492 10493 10495 10498
10702 10701 10699 10697 10696 10694 10692 10691 10689 10688 10686 10684 10682 10681 10679 10677 10675 10673 10671 10670 10668 10667 10665 10664 10662 10660 10659 10657 10655 10654 10652 10650 10648 10646 10644 10642 10640 10638 10635 10633 10630 10627 10624 10622 10620 10617 10612 10608 10604 10601 10597 10593 10589 10585 10581 10577 10572 10567 10562 10558 10553 10548 10543 10538 10533 10527 10522 10517 10512 10507 10503 10499 10495 10492 10489 10487 10486 10484 10482 10481 10481 10481 10482 10483 10484 10486
10703 10702 10700 10699 10697 10695 10693 10692 10690 10689 10687 10685 10683 10681 10680 10677 10675 10674 10672 10670 10669 10667 10665 10664 10662 10660 10658 10657 10655 10653 10652 10650 10648 10646 10644 10641 10639 10636 10633 10630 10627 10624 10622 10620 10618 10613 10609 10605 10602 10598 10594 10590 10586 10582 10579 10575 10570 10565 10560 10555 10550 10544 10539 10534 10529 10524 10518 10513 10508 10503 10498 10493 10489 10486 10483 10481 10479 10477 10475 10473 10472 10472 10472 10473 10474 10476
10704 10703 10701 10700 10698 10696 10695 10693 10691 10689 10688 10686 10684 10682 10680 10678 10676 10674 10672 10670 10669 10667 10665 10663 10661 10660 10658 10656 10654 10653 10651 10649 10647 10644 10642 10640 10637 10634 10631 10628 10625 10623 10621 10617 10613 10609 10605 10602 10599 10595 10591 10587 10583 10579 10575 10571 10567 10562 10557 10551 10546 10541 10535 10530 10525 10520 10515 10509 10504 10499 10494 10489 10484 10480 10477 10474 10472 10470 10468 10466 10465 10463 10463 10463 10464 10466
10704 10703 10702 10700 10698 10696 10695 10693 10691 10689 10687 10685 10683 10681 10679 10677 10675 10673 10672 10670 10668 10666 10664 10662 10660 10659 10657 10655 10653 10651 10649 10647 10645 10642 10640 10637 10634 10632 10629 10627 10624 10621 10618 10613 10609 10605 10602 10598 10595 10591 10587 10583 10579 10575 10571 10567 10563 10559 10553 10548 10542 10537 10531 10526 10521 10515 10510 10505 10500 10495 10490 10485 10480 10475 10471 10468 10466 10464 10461 10459 10457 10456 10455 10454 10454 10456
10704 10703 10702 10700 10698 10696 10694 10692 10690 10688 10686 10684 10682 10680 10678 10676 10675 10673 10671 10669 10667 10665 10663 10661 10659 10657 10655 10653 10651 10648 10646 10644 10642 10640 10637 10634 10632 10629 10627 10625 10622 10618 10614 10609 10605 10602 10599 10595 10592 10588 10584 10580 10576 10572 10568 10563 10559 10555 10549 10544 10538 10533 10527 10522 10516 10511 10505 10500 10495 10491 10486 10481 10476 10471 10467 10463 10459 10456 10455 10453 10450 10448 10447 10446 10445 10446
10703 10702 10701 10699 10698 10696 10693 10691 10688 10686 10685 10683 10681 10679 10677 10675 10673 10671 10669 10667 10664 10662 10661 10659 10657 10655 10653 10650 10648 10646 10644 10642 10639 10637 10634 10632 10629 10627 10624 10622 10618 10614 10610 10606 10603 10600 10596 10593 10589 10585 10581 10577 10573 10568 10564 10559 10554 10550 10545 10540 10534 10529 10523 10518 10512 10507 10501 10496 10491 10486 10482 10477 10473 10468 10463 10459 10454 10451 10448 10446 10444 10442 10440 10438 10437 10436
10702 10700 10699 10697 10696 10695 10693 10691 10688 10686 10684 10682 10680 10678 10676 10674 10672 10669 10667 10665 10663 10661 10659 10657 10655 10653 10650 10648 10646 10644 10642 10639 10637 10635 10632 10629 10627 10624 10621 10618 10615 10611 10607 10604 10601 10597 10593 10590 10586 10582 10578 10574 10569 10565 10560 10555 10550 10545 10540 10535 10530 10525 10520 10514 10508 10502 10497 10492 10487 10482 10477 10473 10469 10465 10460 10455 10451 10446 10442 10439 10437 10436 10433 10431 10430 10428
10701 10699 10697 10696 10694 10693 10692 10690 10688 10686 10683 10681 10679 10677 10675 10673 10671 10669 10667 10664 10662 10660 10658 10655 10653 10651 10648 10646 10644 10642 10639 10637 10635 10632 10629 10626 10624 10621 10618 10615 10611 10608 10605 10602 10598 10595 10591 10587 10583 10578 10574 10570 10565 10561 10556 10551 10545 10540 10535 10531 10526 10521 10516 10510 10504 10499 10493 10488 10482 10478 10473 10469 10464 10460 10455 10451 10446 10442 10438 10434 10431 10429 10427 10425 10423 10421
10700 10698 10696 10694 10693 10692 10690 10689 10687 10685 10683 10681 10679 10676 10674 10672 10670 10669 10666 10664 10661 10659 10657 10654 10652 10649 10647 10644 10642 10640 10637 10635 10632 10629 10626 10624 10621 10618 10615 10612 10609 10606 10602 10599 10596 10592 10588 10584 10579 10575 10571 10566 10561 10556 10552 10547 10541 10536 10531 10526 10521 10516 10512 10506 10501 10495 10489 10483 10478 10474 10469 10464 10460 10455 10450 10446 10442 10438 10434 10429 10425 10423 10421 10418 10416 10414
10699 10697 10695 10693 10691 10690 10688 10687 10686 10684 10682 10680 10678 10675 10673 10670 10668 10667 10665 10662 10660 10657 10655 10653 10650 10648 10645 10643 10640 10638 10635 10632 10629 10626 10624 10621 10618 10616 10613 10610 10607 10603 10600 10597 10593 10590 10585 10581 10576 10572 10567 10563 10558 10553 10548 10543 10538 10532 10527 10522 10517 10512 10507 10502 10497 10491 10486 10480 10475 10470 10465 10460 10455 10451 10446 10441 10437 10433 10429 10425 10421 10417 10414 10412 10409 10407
10697 10695 10693 10691 10689 10688 10686 10685 10683 10681 10680 10678 10676 10674 10671 10669 10666 10664 10662 10660 10658 10655 10653 10650 10648 10646 10644 10642 10639 10636 10633 10630 10627 10625 10622 10619 10616 10614 10611 10607 10604 10601 10598 10594 10591 10587 10583 10578 10574 10569 10564 10560 10555 10550 10545 10539 10534 10529 10524 10518 10513 10508 10503 10498 10493 10488 10483 10477 10472 10466 10461 10456 10451 10447 10442 10437 10433 10428 10424 10421 10417 10413 10409 10406 10403 10401
10694 10693 10691 10689 10688 10686 10684 10682 10680 10678 10677 10675 10673 10671 10669 10666 10663 10660 10658 10656 10655 10652 10650 10648 10646 10644 10642 10639 10637 10634 10631 10628 10626 10623 10620 10618 10615 10612 10609 10606 10603 10599 10596 10592 10589 10585 10580 10576 10571 10567 10562 10558 10553 10547 10542 10537 10531 10526 10521 10516 10510 10505 10499 10494 10489 10484 10478 10473 10467 10462 10457 10451 10447 10442 10437 10432 10428 10424 10419 10415 10412 10408 10404 10401 10397 10394
10692 10690 10688 10687 10685 10684 10682 10680 10677 10675 10673 10672 10670 10668 10666 10664 10661 10658 10655 10653 10651 10649 10647 10645 10643 10641 10639 10637 10634 10632 10629 10626 10624 10622 10619 10616 10613 10610 10607 10604 10601 10598 10594 10590 10586 10582 10578 10573 10569 10565 10560 10556 10550 10545 10540 10534 10529 10524 10519 10513 10508 10502 10496 10491 10485 10479 10474 10468 10463 10457 10452 10446 10441 10437 10432 10427 10422 10418 10414 10410 10406 10403 10399 10396 10392 10389
10690 10687 10686 10684 10684 10682 10680 10678 10675 10673 10671 10668 10666 10665 10663 10661 10658 10655 10652 10650 10648 10646 10644 10642 10640 10638 10636 10634 10632 10629 10627 10624 10622 10620 10618 10615 10612 10609 10606 10603 10600 10596 10592 10588 10584 10580 10576 10571 10567 10563 10558 10553 10548 10543 10537 10532 10526 10521 10516 10510 10505 10499 10493 10487 10481 10475 10470 10464 10459 10453 10447 10442 10436 10431 10427 10422 10417 10413 10409 10405 10401 10397 10394 10391 10387 10384
10687 10685 10683 10682 10682 10681 10679 10677 10674 10671 10669 10667 10664 10662 10660 10658 10656 10653 10650 10647 10645 10643 10641 10639 10637 10636 10634 10632 10630 10628 10625 10623 10621 10618 10616 10614 10611 10608 10605 10602 10598 10595 10590 10586 10582 10578 10574 10570 10565 10561 10556 10550 10545 10540 10535 10529 10524 10518 10513 10507 10501 10495 10489 10483 10477 10471 10465 10460 10454 10448 10442 10437 10431 10426 10421 10417 10412 10407 10403 10399 10396 10392 10388 10385 10382 10378
10685 10683 10681 10680 10679 10678 10676 10674 10672 10669 10667 10665 10662 10660 10658 10656 10653 10651 10648 10645 10643 10640 10638 10636 10635 10633 10631 10629 10627 10626 10624 10622 10619 10617 10615 10613 10610 10607 10604 10600 10596 10592 10589 10585 10581 10576 10572 10568 10563 10558 10553 10548 10543 10537 10532 10527 10521 10515 10509 10503 10497 10491 10485 10479 10473 10467 10461 10455 10449 10444 10438 10432 10427 10422 10416 10412 10407 10402 10398 10393 10390 10386 10383 10380 10376 10373
10682 10680 10679 10678 10677 10675 10672 10670 10668 10666 10664 10662 10659 10657 10655 10653 10650 10648 10645 10643 10640 10638 10636 10634 10632 10630 10629 10627 10625 10623 10622 10620 10618 10615 10613 10611 10608 10605 10601 10598 10594 10590 10586 10583 10579 10575 10570 10566 10561 10556 10551 10545 10540 10535 10529 10523 10517 10511 10504 10498 10492 10486 10480 10474 10468 10462 10456 10450 10444 10439 10433 10427 10422 10417 10411 10407 10402 10397 10392 10388 10383 10380 10377 10374 10371 10367
10680 10678 10677 10676 10674 10672 10669 10667 10666 10664 10662 10659 10657 10655 10652 10650 10647 10644 10642 10640 10637 10635 10633 10632 10630 10628 10626 10624 10622 10621 10619 10617 10615 10613 10611 10608 10605 10602 10599 10595 10592 10588 10584 10581 10577 10573 10569 10564 10559 10554 10549 10543 10537 10531 10525 10519 10512 10506 10500 10493 10487 10482 10476 10470 10464 10457 10451 10445 10439 10434 10428 10422 10416 10411 10406 10401 10396 10391 10386 10382 10377 10373 10370 10367 10365 10361
10677 10675 10675 10674 10672 10669 10667 10665 10664 10662 10660 10657 10655 10653 10650 10647 10644 10642 10639 10637 10635 10633 10631 10629 10627 10625 10624 10622 10620 10618 10616 10615 10613 10611 10608 10606 10603 10600 10596 10593 10590 10586 10583 10579 10575 10571 10567 10562 10557 10551 10545 10539 10533 10527 10521 10514 10508 10502 10495 10489 10483 10477 10471 10465 10459 10452 10446 10440 10434 10428 10422 10417 10411 10405 10400 10395 10390 10385 10380 10375 10371 10367 10363 10360 10358 10355
10674 10673 10673 10672 10669 10667 10664 10662 10661 10660 10657 10655 10653 10651 10648 10645 10642 10640 10637 10635 10633 10631 10628 10626 10625 10623 10621 10619 10617 10615 10613 10611 10610 10608 10605 10603 10600 10597 10594 10591 10587 10584 10580 10576 10572 10568 10563 10558 10552 10546 10540 10534 10528 10523 10517 10511 10504 10498 10491 10485 10478 10472 10466 10460 10453 10447 10440 10434 10428 10422 10416 10410 10404 10399 10394 10389 10384 10379 10373 10369 10364 10361 10357 10354 10350 10348
10672 10672 10670 10669 10667 10665 10662 10660 10658 10657 10655 10653 10650 10648 10646 10643 10640 10638 10635 10633 10631 10629 10627 10625 10623 10621 10619 10617 10615 10613 10611 10609 10607 10605 10602 10600 10597 10594 10591 10588 10584 10581 10577 10573 10569 10564 10559 10553 10547 10541 10536 10530 10524 10518 10513 10507 10500 10493 10487 10480 10474 10467 10460 10454 10447 10441 10435 10428 10422 10415 10409 10403 10397 10392 10387 10382 10377 10372 10367 10362 10357 10353 10350 10347 10344 10340
10670 10670 10669 10666 10665 10663 10660 10658 10656 10654 10652 10650 10648 10646 10644 10641 10639 10636 10633 10631 10629 10627 10625 10623 10621 10619 10617 10615 10613 10611 10609 10607 10605 10603 10600 10597 10594 10591 10588 10585 10581 10577 10573 10569 10564 10559 10553 10548 10542 10536 10531 10525 10519 10512 10507 10501 10494 10487 10481 10475 10468 10461 10455 10448 10441 10435 10429 10422 10415 10408 10401 10395 10389 10384 10380 10375 10371 10366 10360 10355 10350 10346 10342 10340 10337 10333
10669 10668 10666 10665 10663 10661 10659 10657 10655 10653 10650 10648 10647 10644 10642 10639 10637 10634 10632 10629 10627 10625 10623 10621 10619 10617 10615 10613 10611 10609 10607 10605 10603 10600 10598 10595 10592 10588 10585 10581 10577 10573 10569 10564 10559 10553 10548 10542 10537 10532 10526 10521 10514 10507 10500 10494 10488 10481 10475 10469 10462 10455 10449 10442 10435 10429 10422 10415 10408 10401 10394 10388 10381 10376 10372 10368 10364 10359 10354 10348 10343 10338 10334 10331 10329 10326
10667 10666 10664 10663 10661 10659 10657 10655 10653 10651 10648 10646 10644 10642 10640 10638 10635 10632 10630 10628 10626 10624 10621 10619 10617 10615 10613 10611 10609 10607 10605 10603 10600 10597 10594 10591 10588 10584 10581 10577 10573 10568 10563 10558 10553 10549 10544 10538 10533 10528 10522 10515 10508 10500 10493 10487 10481 10475 10468 10462 10455 10448 10442 10435 10428 10422 10415 10408 10401 10394 10387 10380 10374 10368 10363 10360 10356 10351 10347 10341 10336 10331 10326 10322 10319 10317
10665 10664 10662 10661 10659 10657 10655 10653 10651 10649 10646 10644 10642 10640 10638 10636 10633 10631 10628 10626 10624 10622 10619 10617 10615 10613 10610 10608 10606 10604 10602 10600 10597 10594 10591 10588 10584 10580 10576 10573 10568 10563 10559 10554 10549 10545 10540 10535 10530 10524 10517 10509 10502 10494 10487 10480 10474 10468 10461 10454 10447 10440 10434 10427 10420 10415 10409 10402 10394 10386 10379 10372 10366 10360 10356 10351 10347 10343 10339 10334 10328 10324 10319 10315 10310 10308
10663 10661 10660 10659 10657 10655 10653 10651 10649 10647 10644 10642 10640 10638 10636 10634 10631 10629 10626 10624 10622 10619 10617 10615 10612 10610 10608 10606 10604 10601 10599 10596 10594 10591 10588 10584 10580 10577 10573 10568 10564 10559 10554 10550 10546 10541 10537 10531 10525 10517 10510 10503 10496 10488 10481 10474 10468 10461 10454 10447 10440 10433 10426 10420 10413 10407 10401 10395 10388 10380 10372 10365 10358 10353 10348 10343 10338 10334 10330 10326 10321 10316 10312 10308 10303 10298
10662 10660 10658 10656 10655 10653 10651 10648 10646 10644 10642 10640 10637 10635 10633 10631 10629 10627 10624 10622 10619 10617 10615 10613 10610 10608 10606 10603 10601 10598 10596 10593 10590 10587 10584 10581 10577 10573 10569 10564 10560 10555 10550 10546 10541 10536 10531 10525 10518 10511 10504 10497 10490 10482 10475 10468 10462 10455 10447 10440 10433 10426 10420 10413 10406 10399 10392 10387 10380 10372 10364 10357 10350 10345 10340 10335 10329 10325 10321 10318 10314 10310 10304 10300 10295 10289
10659 10657 10655 10653 10652 10650 10648 10646 10643 10641 10640 10637 10635 10633 10630 10628 10626 10624 10621 10619 10617 10615 10612 10610 10608 10605 10603 10601 10598 10596 10593 10590 10587 10584 10580 10577 10573 10569 10565 10561 10556 10551 10546 10540 10535 10529 10523 10517 10510 10503 10496 10489 10483 10476 10469 10462 10455 10449 10441 10434 10426 10419 10412 10405 10398 10391 10384 10378 10372 10364 10356 10349 10343 10337 10332 10326 10321 10316 10312 10308 10305 10302 10297 10292 10287 10281
10656 10655 10653 10650 10648 10647 10645 10643 10640 10638 10636 10635 10633 10630 10628 10625 10623 10621 10619 10616 10614 10612 10609 10607 10605 10602 10600 10597 10595 10592 10589 10587 10583 10580 10577 10573 10569 10565 10561 10556 10551 10545 10540 10534 10528 10522 10516 10510 10503 10496 10489 10483 10476 10469 10462 10456 10449 10443 10436 10428 10420 10412 10404 10397 10390 10385 10378 10371 10364 10356 10348 10341 10335 10330 10324 10318 10313 10308 10303 10299 10295 10292 10289 10286 10280 10274